User: anonymous   Login
Location: Kuffner-Sternwarte
(48.2130°N, 16.2960°E)
Time: 00:31:49
(UTC+02:00)
Language:

COROT - Orbit

View from above orbital plane
View from above orbital plane
View from above satellite
View from above satellite

Ground track
Ground track

The orbit data is extracted from the following two-line orbital elements,

1 29678U 06063A   19141.17946731  .00000148  00000-0  31010-4 0  9993
2 29678  90.0394  18.1205 0199201 255.1077 102.7993 14.44274714641522
Epoch (UTC): 21 May 2019 04:18:25
Eccentricity: 0.0199201
inclination: 90.0394°
perigee height: 602 km
apogee height: 886 km
right ascension of ascending node: 18.1205°
argument of perigee: 255.1077°
revolutions per day: 14.44274714
mean anomaly at epoch: 102.7993°
orbit number at epoch: 64152

The dashed part of the orbit path shows where the satellite is in the earth's shadow,  

DLR